Starlink 6109

operational
NORAD ID: 56094 Int'l Des: 2023-046 Owner: SPXS Country: US Constellation: starlink
LEOCIRCULAR

About Starlink 6109

Description loading...

Live Position

Loading 3D Globe...

Upcoming Passes

Altitude History

Altitude vs Time

uPlot chart will show altitude changes over time

Two-Line Element Set

1 56094U 23046B 25351.08702623 -.00000159 00000-0 33373-5 0 9993
2 56094 43.0038 248.0288 0001148 272.7032 87.3679 15.02535430149634
Epoch: Dec 17, 2025 • Age: 22 hours

Current Status

Altitude 568.6 km
Velocity 7.58 km/s
Sub-Earth Point -35.53°S, 104.04°E
Launch Date Mar 29, 2023
Age 2.7 years
Type internet

Technical Details

Classification Payload
Mass 305.00 kg
Dry Mass 290.00 kg
Total Mass 305.00 kg
Length 0.20 m
Diameter 2.80 m
Span 9.00 m
Shape Box + pan
Manufacturer SPXS
Bus Type Starlink
Phase Status In Orbit
Owner/State SPXS/US

Large Constellations

Loading constellations...